Location: Goll?ig?dem
(16.6773°N, 80.7332°E)
Time: 01:55:08
(UTC+00:00)

Cosmos 1000 Rocket - Pass Details

Date: 21 April 2021
Orbit: 953 x 992 km, 82.9° (Epoch: 07 May)

Event Time Altitude Azimuth Distance (km) Brightness Sun altitude
Exits shadow 22:43:01 35° 210° (SSW) 1,547 5.1 -22.4°
Maximum altitude 22:45:39 60° 275° (W) 1,121 4.5 -21.8°
Drops below altitude 10° 22:51:52 10° 354° (N) 2,750 7.0 -20.4°
Sets 22:54:27 0° 358° (N) 3,700 7.8 -19.9°
